• In Hungary
  • List of Countries
  • For 7 days
  • Water Temperature
  • Satellite Maps
  • Weather Map
  • News
  • Weather Widgets
  • user-avatar
    Login

    Hourly Weather Keszthely

    Today, 21 September, Friday

    Time Temperature Precipitation Wind Pressure Humidity
    00:00 +18°C° 0 mm 0 mps 753 mmHg 58%
    01:00 +17°C° 0 mm 0 mps 753 mmHg 59%
    02:00 +17°C° 0 mm 0 mps 753 mmHg 61%
    03:00 +17°C° 0 mm 0 mps 753 mmHg 62%
    04:00 +16°C° 0 mm 0 mps 752 mmHg 64%
    05:00 +19°C° 0 mm 1 mps 752 mmHg 62%
    06:00 +20°C° 0 mm 1 mps 752 mmHg 60%
    07:00 +20°C° 0 mm 1 mps 752 mmHg 58%
    08:00 +23°C° 0 mm 1 mps 752 mmHg 51%
    09:00 +25°C° 0 mm 2 mps 752 mmHg 44%
    10:00 +28°C° 0 mm 2 mps 752 mmHg 37%
    11:00 +29°C° 0 mm 3 mps 751 mmHg 35%
    12:00 +30°C° 0 mm 3 mps 751 mmHg 33%
    13:00 +32°C° 0 mm 4 mps 750 mmHg 30%
    14:00 +32°C° 0 mm 4 mps 750 mmHg 31%
    15:00 +31°C° 0 mm 3 mps 750 mmHg 32%
    16:00 +31°C° 0 mm 3 mps 749 mmHg 33%
    17:00 +28°C° 0 mm 3 mps 749 mmHg 39%
    18:00 +26°C° 0 mm 2 mps 749 mmHg 46%
    19:00 +24°C° 0 mm 2 mps 749 mmHg 52%
    20:00 +23°C° 0 mm 2 mps 750 mmHg 55%
    21:00 +21°C° 0 mm 2 mps 750 mmHg 59%
    22:00 +22°C° 0 mm 1 mps 750 mmHg 62%
    23:00 +21°C° 0 mm 1 mps 750 mmHg 65%

    Tomorrow, 22 September, Saturday

    Time Temperature Precipitation Wind Pressure Humidity
    00:00 +21°C° 0 mm 1 mps 750 mmHg 68%
    01:00 +20°C° 0 mm 1 mps 750 mmHg 71%
    02:00 +19°C° 0 mm 2 mps 751 mmHg 72%
    03:00 +19°C° 0 mm 3 mps 751 mmHg 73%
    04:00 +19°C° 0 mm 4 mps 751 mmHg 73%
    05:00 +19°C° 0 mm 6 mps 752 mmHg 66%
    06:00 +18°C° 0 mm 7 mps 753 mmHg 58%
    07:00 +17°C° 0 mm 9 mps 754 mmHg 50%
    08:00 +17°C° 0 mm 9 mps 755 mmHg 51%
    09:00 +16°C° 0 mm 8 mps 756 mmHg 52%
    10:00 +15°C° 0 mm 7 mps 756 mmHg 53%
    11:00 +14°C° 0.1 mm 6 mps 757 mmHg 56%
    12:00 +14°C° 0.1 mm 5 mps 757 mmHg 59%
    13:00 +13°C° 0.1 mm 4 mps 758 mmHg 63%
    14:00 +13°C° 0.3 mm 3 mps 758 mmHg 67%
    15:00 +13°C° 0.3 mm 2 mps 758 mmHg 72%
    16:00 +13°C° 0.3 mm 1 mps 758 mmHg 77%
    17:00 +12°C° 0.2 mm 2 mps 758 mmHg 79%
    18:00 +12°C° 0.2 mm 2 mps 758 mmHg 82%
    19:00 +12°C° 0.2 mm 2 mps 758 mmHg 84%
    20:00 +12°C° 0.2 mm 2 mps 759 mmHg 85%
    21:00 +12°C° 0.2 mm 2 mps 759 mmHg 87%
    22:00 +11°C° 0.2 mm 3 mps 759 mmHg 88%
    23:00 +12°C° 0.1 mm 2 mps 759 mmHg 88%

    Day after tomorrow, 23 September, Sunday

    Time Temperature Precipitation Wind Pressure Humidity
    00:00 +12°C° 0.1 mm 2 mps 759 mmHg 89%
    01:00 +12°C° 0.1 mm 2 mps 759 mmHg 89%
    02:00 +12°C° 0 mm 2 mps 758 mmHg 89%
    03:00 +12°C° 0 mm 2 mps 758 mmHg 88%
    04:00 +12°C° 0 mm 1 mps 758 mmHg 88%
    05:00 +12°C° 0 mm 1 mps 758 mmHg 86%
    06:00 +13°C° 0 mm 1 mps 758 mmHg 85%
    07:00 +13°C° 0 mm 1 mps 758 mmHg 83%
    08:00 +14°C° 0 mm 1 mps 758 mmHg 78%
    09:00 +15°C° 0 mm 1 mps 758 mmHg 73%
    10:00 +16°C° 0 mm 2 mps 758 mmHg 68%
    11:00 +18°C° 0 mm 2 mps 758 mmHg 60%
    12:00 +19°C° 0 mm 2 mps 757 mmHg 53%
    13:00 +21°C° 0 mm 3 mps 757 mmHg 45%
    14:00 +22°C° 0 mm 3 mps 756 mmHg 43%
    15:00 +24°C° 0 mm 3 mps 756 mmHg 41%
    16:00 +25°C° 0 mm 3 mps 755 mmHg 39%
    17:00 +22°C° 0 mm 3 mps 755 mmHg 44%
    18:00 +20°C° 0 mm 3 mps 754 mmHg 50%
    19:00 +18°C° 0 mm 2 mps 754 mmHg 55%
    20:00 +18°C° 0 mm 2 mps 754 mmHg 57%
    21:00 +17°C° 0 mm 3 mps 753 mmHg 59%
    22:00 +17°C° 0 mm 3 mps 752 mmHg 60%
    23:00 +17°C° 0 mm 4 mps 751 mmHg 60%

    24 September, Monday

    Time Temperature Precipitation Wind Pressure Humidity
    00:00 +17°C° 0 mm 5 mps 750 mmHg 59%
    01:00 +17°C° 0 mm 5 mps 749 mmHg 58%
    02:00 +19°C° 0 mm 6 mps 748 mmHg 62%
    03:00 +18°C° 0 mm 7 mps 747 mmHg 66%
    04:00 +20°C° 0 mm 7 mps 746 mmHg 69%
    05:00 +21°C° 0 mm 7 mps 746 mmHg 70%
    06:00 +21°C° 0 mm 7 mps 746 mmHg 70%
    07:00 +22°C° 0 mm 6 mps 745 mmHg 71%
    08:00 +22°C° 0.4 mm 6 mps 746 mmHg 69%
    09:00 +23°C° 0.4 mm 7 mps 747 mmHg 68%
    10:00 +23°C° 0.4 mm 7 mps 748 mmHg 67%
    11:00 +23°C° 0.3 mm 9 mps 749 mmHg 57%
    12:00 +22°C° 0.3 mm 11 mps 750 mmHg 47%
    13:00 +20°C° 0.3 mm 13 mps 751 mmHg 36%
    14:00 +19°C° 0 mm 12 mps 752 mmHg 37%
    15:00 +17°C° 0 mm 12 mps 753 mmHg 37%
    16:00 +15°C° 0 mm 12 mps 754 mmHg 37%
    17:00 +14°C° 0 mm 10 mps 756 mmHg 39%
    18:00 +13°C° 0 mm 8 mps 757 mmHg 42%
    19:00 +12°C° 0 mm 7 mps 758 mmHg 44%
    20:00 +13°C° 0 mm 6 mps 759 mmHg 47%
    21:00 +12°C° 0 mm 4 mps 760 mmHg 49%
    22:00 +11°C° 0 mm 3 mps 761 mmHg 52%
    23:00 +10°C° 0 mm 4 mps 761 mmHg 54%

    25 September, Tuesday

    Time Temperature Precipitation Wind Pressure Humidity
    00:00 +10°C° 0 mm 4 mps 761 mmHg 55%
    01:00 +10°C° 0 mm 4 mps 761 mmHg 57%
    02:00 +8°C° 0 mm 5 mps 762 mmHg 58%
    03:00 +8°C° 0 mm 5 mps 762 mmHg 60%
    04:00 +8°C° 0 mm 5 mps 763 mmHg 62%
    05:00 +8°C° 0 mm 6 mps 763 mmHg 61%
    06:00 +8°C° 0 mm 6 mps 764 mmHg 60%
    07:00 +8°C° 0 mm 7 mps 764 mmHg 59%
    08:00 +10°C° 0 mm 7 mps 764 mmHg 51%
    09:00 +11°C° 0 mm 7 mps 765 mmHg 43%
    10:00 +12°C° 0 mm 8 mps 765 mmHg 35%
    11:00 +13°C° 0 mm 8 mps 765 mmHg 33%
    12:00 +15°C° 0 mm 8 mps 765 mmHg 30%
    13:00 +16°C° 0 mm 7 mps 764 mmHg 28%
    14:00 +15°C° 0 mm 7 mps 764 mmHg 28%
    15:00 +15°C° 0 mm 6 mps 764 mmHg 29%
    16:00 +15°C° 0 mm 6 mps 763 mmHg 29%
    17:00 +13°C° 0 mm 4 mps 764 mmHg 34%
    18:00 +11°C° 0 mm 3 mps 764 mmHg 39%
    19:00 +10°C° 0 mm 2 mps 764 mmHg 44%
    20:00 +9°C° 0 mm 2 mps 764 mmHg 46%
    21:00 +10°C° 0 mm 1 mps 764 mmHg 48%
    22:00 +10°C° 0 mm 1 mps 764 mmHg 50%
    23:00 +9°C° 0 mm 1 mps 764 mmHg 52%

    26 September, Wednesday

    Time Temperature Precipitation Wind Pressure Humidity
    00:00 +8°C° 0 mm 2 mps 764 mmHg 55%
    01:00 +7°C° 0 mm 2 mps 763 mmHg 57%
    02:00 +7°C° 0 mm 2 mps 763 mmHg 58%
    03:00 +7°C° 0 mm 2 mps 763 mmHg 60%
    04:00 +6°C° 0 mm 2 mps 762 mmHg 61%
    05:00 +7°C° 0 mm 3 mps 762 mmHg 59%
    06:00 +8°C° 0 mm 3 mps 762 mmHg 57%
    07:00 +9°C° 0 mm 3 mps 762 mmHg 55%
    08:00 +9°C° 0 mm 5 mps 763 mmHg 54%
    09:00 +11°C° 0 mm 6 mps 763 mmHg 52%
    10:00 +14°C° 0 mm 7 mps 763 mmHg 51%
    11:00 +15°C° 0 mm 7 mps 763 mmHg 47%
    12:00 +16°C° 0 mm 7 mps 762 mmHg 43%
    13:00 +17°C° 0 mm 7 mps 762 mmHg 39%
    14:00 +17°C° 0 mm 7 mps 762 mmHg 38%
    15:00 +17°C° 0 mm 6 mps 762 mmHg 36%
    16:00 +17°C° 0 mm 6 mps 762 mmHg 35%
    17:00 +15°C° 0 mm 5 mps 762 mmHg 41%
    18:00 +13°C° 0 mm 3 mps 763 mmHg 46%
    19:00 +12°C° 0 mm 2 mps 763 mmHg 52%
    20:00 +10°C° 0 mm 2 mps 763 mmHg 54%
    21:00 +10°C° 0 mm 2 mps 764 mmHg 56%
    22:00 +9°C° 0 mm 2 mps 764 mmHg 58%
    23:00 +10°C° 0 mm 1 mps 764 mmHg 59%
    Show more